Weather History for Mt. Pocono, PA

Change the Weather History Date:

Friday, March 28, 2014

  Actual Average Record
Temperature  
Mean Temperature 40 °F 38 °F  
Max Temperature 49 °F 47 °F 79 °F (1945)
Min Temperature 30 °F 29 °F 8 °F (1990)
Degree Days  
Heating Degree Days 25 27  
Month to date heating degree days 1093 896  
Since 1 July heating degree days 6520 6019  
Cooling Degree Days 0 0  
Month to date cooling degree days 0 0  
Year to date cooling degree days 0 0  
Moisture  
Dew Point 38 °F    
Average Humidity 82    
Maximum Humidity 100    
Minimum Humidity 63    
Precipitation  
Precipitation 0.07 in 0.15 in 2.12 in (2005)
Month to date precipitation 0.56 3.35  
Year to date precipitation 6.95 8.61  
Sea Level Pressure  
Sea Level Pressure 30.02 in    
Wind  
Wind Speed 9 mph (SW)    
Max Wind Speed 17 mph    
Max Gust Speed 24 mph    
Visibility 4 miles    
Events Fog , Rain    
T = Trace of Precipitation, MM = Missing Value Source: NWS Daily Summary

Daily Weather History Graph

Daily Weather History Graph

Search for Another Location

Airport:

Trip Planner

Search our weather history database for the weather conditions in past years. The results will help you decide how hot, cold, wet, or windy it might be!

Date:

Astronomy

Mar. 28, 2014 Rise Set
Actual Time 6:51 AM EDT 7:22 PM EDT
Civil Twilight 6:23 AM EDT 7:49 PM EDT
Nautical Twilight 5:51 AM EDT 8:22 PM EDT
Astronomical Twilight 5:17 AM EDT 8:56 PM EDT
Moon 5:22 AM EDT (3/28) 5:15 PM EDT (3/28)
Length of Visible Light 13h 26m
Length of Day
12h 30m
Waning Crescent, 6% of the Moon is Illuminated
Mar 28
Waning Crescent
Mar 30
New
Apr 7
First Quarter
Apr 15
Full
Apr 22
Last Quarter

Hourly Weather History & Observations

Time (EDT) Temp. Windchill Dew Point Humidity Pressure Visibility Wind Dir Wind Speed Gust Speed Precip Events Conditions
12:53 AM 30.9 °F 21.7 °F 19.0 °F 61% 30.17 in 10.0 mi South 11.5 mph - N/A   Clear
1:53 AM 30.9 °F 21.2 °F 19.9 °F 64% 30.14 in 10.0 mi South 12.7 mph - N/A   Partly Cloudy
2:53 AM 30.0 °F 23.2 °F 19.9 °F 66% 30.11 in 10.0 mi South 6.9 mph - N/A   Partly Cloudy
3:53 AM 32.0 °F 24.8 °F 21.0 °F 64% 30.09 in 10.0 mi South 8.1 mph - N/A   Mostly Cloudy
4:53 AM 33.1 °F 26.1 °F 24.1 °F 70% 30.07 in 10.0 mi SSW 8.1 mph - 0.00 in   Overcast
5:53 AM 33.1 °F 25.5 °F 25.0 °F 72% 30.08 in 8.0 mi SW 9.2 mph - 0.00 in Rain Light Rain
6:53 AM 34.0 °F 25.5 °F 27.0 °F 75% 30.06 in 10.0 mi SW 11.5 mph 20.7 mph 0.00 in Rain Light Rain
7:53 AM 35.1 °F 28.6 °F 28.9 °F 78% 30.07 in 6.0 mi SW 8.1 mph - 0.00 in Rain Light Rain
8:53 AM 36.0 °F 29.0 °F 30.0 °F 79% 30.07 in 10.0 mi SW 9.2 mph - 0.01 in Rain Light Rain
9:53 AM 37.9 °F 30.5 °F 30.9 °F 76% 30.07 in 6.0 mi SW 11.5 mph - 0.00 in Rain Light Rain
10:38 AM 37.0 °F 29.8 °F 34.0 °F 89% 29.99 in 3.0 mi SSW 10.4 mph - 0.04 in Rain Light Rain
10:53 AM 37.0 °F 31.0 °F 34.0 °F 89% 30.03 in 4.0 mi SSW 8.1 mph - 0.05 in Rain Light Rain
11:17 AM 37.0 °F 28.9 °F 35.1 °F 93% 29.99 in 4.0 mi SSW 12.7 mph 20.7 mph 0.00 in   Overcast
11:38 AM 37.9 °F 30.5 °F 36.0 °F 93% 29.98 in 3.0 mi SSW 11.5 mph 24.2 mph 0.00 in   Overcast
11:53 AM 37.9 °F 29.6 °F 36.0 °F 93% 30.03 in 2.0 mi SSW 13.8 mph - 0.00 in   Overcast
12:01 PM 37.9 °F 32.1 °F 36.0 °F 93% 29.97 in 1.5 mi SSW 8.1 mph 20.7 mph N/A   Overcast
12:18 PM 39.0 °F 31.8 °F 37.0 °F 93% 29.96 in 2.5 mi SSW 11.5 mph 20.7 mph N/A   Overcast
12:33 PM 39.0 °F 31.8 °F 37.9 °F 96% 29.96 in 1.0 mi SW 11.5 mph 20.7 mph 0.00 in Rain Light Rain
12:39 PM 39.0 °F 31.4 °F 37.9 °F 96% 29.96 in 0.2 mi SW 12.7 mph 19.6 mph 0.00 in Fog , Rain Light Rain
12:53 PM 39.0 °F 31.4 °F 37.9 °F 96% 30.01 in 0.2 mi SW 12.7 mph 19.6 mph 0.01 in Fog , Rain Light Rain
1:53 PM 39.9 °F 33.9 °F 39.0 °F 97% 29.99 in 0.2 mi SW 9.2 mph 18.4 mph 0.00 in Fog Fog
2:53 PM 42.1 °F 35.2 °F 41.0 °F 96% 29.97 in 0.2 mi SW 12.7 mph 20.7 mph N/A Fog Fog
3:53 PM 43.0 °F 36.4 °F 42.1 °F 97% 29.97 in 0.2 mi SW 12.7 mph - N/A Fog Fog
4:35 PM 44.1 °F 39.0 °F 43.0 °F 96% 29.93 in 0.5 mi SW 9.2 mph 18.4 mph N/A Fog Fog
4:53 PM 45.0 °F 41.2 °F 43.0 °F 93% 29.98 in 0.5 mi WSW 6.9 mph - N/A Fog Fog
5:05 PM 45.0 °F 40.1 °F 44.1 °F 97% 29.94 in 0.2 mi SW 9.2 mph - N/A Fog Fog
5:16 PM 45.0 °F 40.6 °F 44.1 °F 97% 29.94 in 0.5 mi SW 8.1 mph - N/A Fog Fog
5:53 PM 46.0 °F 41.0 °F 45.0 °F 96% 29.98 in 0.8 mi SW 10.4 mph - N/A   Overcast
6:22 PM 46.9 °F - 46.0 °F 97% 29.95 in 1.0 mi SW 8.1 mph - N/A   Overcast
6:33 PM 46.9 °F - 46.0 °F 97% 29.95 in 0.8 mi SSW 6.9 mph - N/A   Overcast
6:53 PM 46.9 °F - 46.0 °F 97% 30.00 in 0.5 mi SSW 8.1 mph - N/A Fog Fog
7:08 PM 46.9 °F - 46.0 °F 97% 29.96 in 0.2 mi SSW 5.8 mph - N/A Fog Fog
7:20 PM 46.9 °F - 46.0 °F 97% 29.96 in 0.8 mi SSW 6.9 mph - N/A   Overcast
7:28 PM 48.0 °F - 46.0 °F 93% 29.96 in 1.2 mi SSW 6.9 mph - N/A   Overcast
7:53 PM 48.0 °F - 46.9 °F 96% 30.01 in 2.0 mi Variable 4.6 mph - N/A   Overcast
8:27 PM 48.9 °F - 46.9 °F 93% 30.01 in 4.0 mi West 13.8 mph 24.2 mph N/A   Overcast
8:32 PM 48.9 °F - 46.9 °F 93% 30.01 in 4.0 mi West 12.7 mph - N/A   Overcast
8:41 PM 48.0 °F - 46.0 °F 93% 30.01 in 4.0 mi West 9.2 mph - N/A   Overcast
8:53 PM 48.0 °F - 46.0 °F 93% 30.04 in 4.0 mi West 9.2 mph - N/A   Overcast
9:31 PM 46.9 °F - 46.0 °F 97% 30.02 in 2.5 mi West 8.1 mph - N/A   Mostly Cloudy
9:38 PM 48.0 °F - 46.0 °F 93% 30.02 in 3.0 mi West 8.1 mph - N/A   Mostly Cloudy
9:53 PM 46.9 °F - 45.0 °F 93% 30.05 in 3.0 mi West 8.1 mph - N/A   Scattered Clouds
10:53 PM 46.9 °F - 44.1 °F 90% 30.08 in 5.0 mi West 9.2 mph - N/A   Clear
11:53 PM 46.9 °F - 44.1 °F 90% 30.12 in 6.0 mi West 8.1 mph - N/A   Clear